Location: Beuvrequen
(50.8014°N, 1.6652°E)
Time: 02:34:49
(UTC+00:00)

Lacrosse 4 Rocket - Pass Details

Date: 04 June 2022
Orbit: 541 x 611 km, 68.0° (Epoch: 04 July)

Event Time Altitude Azimuth Distance (km) Brightness Sun altitude
Exits shadow 02:01:59 15° 193° (SSW) 1,560 3.0 -11.3°
Maximum altitude 02:05:15 54° 120° (ESE) 693 1.8 -11.1°
Drops below altitude 10° 02:09:19 10° 42° (NE) 1,857 5.5 -10.7°
Sets 02:11:33 0° 38° (NE) 2,746 7.1 -10.6°
